TimeCST,TemperatureF,Dew PointF,Humidity,Sea Level PressureIn,VisibilityMPH,Wind Direction,Wind SpeedMPH,Gust SpeedMPH,PrecipitationIn,Events,Conditions,WindDirDegrees,DateUTC
12:15 AM,26.6,12.2,55,30.36,10.0,South,3.5,-,N/A,,Clear,180,2013-11-28 06:15:00
12:35 AM,26.6,14.0,59,30.36,10.0,South,4.6,-,N/A,,Clear,180,2013-11-28 06:35:00
12:55 AM,26.6,12.2,55,30.36,10.0,South,4.6,-,N/A,,Clear,180,2013-11-28 06:55:00
1:15 AM,28.4,12.2,51,30.36,10.0,South,5.8,-,N/A,,Clear,180,2013-11-28 07:15:00
1:35 AM,26.6,14.0,59,30.37,10.0,South,4.6,-,N/A,,Clear,180,2013-11-28 07:35:00
1:55 AM,26.6,14.0,59,30.37,10.0,South,6.9,-,N/A,,Clear,190,2013-11-28 07:55:00
2:15 AM,28.4,15.8,59,30.38,10.0,SSW,5.8,-,N/A,,Clear,200,2013-11-28 08:15:00
2:35 AM,28.4,14.0,55,30.38,10.0,South,5.8,-,N/A,,Clear,170,2013-11-28 08:35:00
2:55 AM,28.4,15.8,59,30.38,10.0,South,5.8,-,N/A,,Clear,170,2013-11-28 08:55:00
3:15 AM,26.6,15.8,64,30.38,10.0,Calm,Calm,-,N/A,,Clear,0,2013-11-28 09:15:00
3:35 AM,26.6,15.8,64,30.38,10.0,South,4.6,-,N/A,,Clear,190,2013-11-28 09:35:00
3:55 AM,26.6,15.8,64,30.37,10.0,SSE,5.8,-,N/A,,Clear,160,2013-11-28 09:55:00
4:15 AM,26.6,15.8,64,30.36,10.0,SSE,6.9,-,N/A,,Clear,150,2013-11-28 10:15:00
4:35 AM,26.6,17.6,69,30.36,10.0,SE,6.9,-,N/A,,Clear,140,2013-11-28 10:35:00
4:55 AM,26.6,15.8,64,30.37,10.0,SSE,5.8,-,N/A,,Clear,150,2013-11-28 10:55:00
5:15 AM,26.6,15.8,64,30.37,10.0,SSE,5.8,-,N/A,,Clear,150,2013-11-28 11:15:00
5:35 AM,26.6,15.8,64,30.37,10.0,SSE,5.8,-,N/A,,Clear,160,2013-11-28 11:35:00
5:55 AM,26.6,17.6,69,30.37,10.0,SSE,5.8,-,N/A,,Clear,160,2013-11-28 11:55:00
6:15 AM,26.6,15.8,64,30.38,10.0,South,5.8,-,N/A,,Clear,180,2013-11-28 12:15:00
6:35 AM,26.6,15.8,64,30.38,10.0,South,5.8,-,N/A,,Clear,170,2013-11-28 12:35:00
6:55 AM,26.6,17.6,69,30.38,10.0,SSE,6.9,-,N/A,,Clear,160,2013-11-28 12:55:00
7:15 AM,26.6,19.4,74,30.39,10.0,SSE,4.6,-,N/A,,Clear,160,2013-11-28 13:15:00
7:35 AM,26.6,17.6,69,30.39,10.0,SE,4.6,-,N/A,,Clear,140,2013-11-28 13:35:00
7:55 AM,28.4,17.6,64,30.40,10.0,SSE,3.5,-,N/A,,Clear,160,2013-11-28 13:55:00
8:15 AM,30.2,17.6,60,30.40,10.0,SSE,5.8,-,N/A,,Clear,150,2013-11-28 14:15:00
8:35 AM,30.2,17.6,60,30.41,10.0,South,4.6,-,N/A,,Clear,170,2013-11-28 14:35:00
8:55 AM,32.0,17.6,55,30.41,10.0,SSW,4.6,-,N/A,,Clear,200,2013-11-28 14:55:00
9:15 AM,33.8,19.4,56,30.41,10.0,South,8.1,-,N/A,,Clear,190,2013-11-28 15:15:00
9:35 AM,35.6,21.2,56,30.41,10.0,SSW,8.1,-,N/A,,Clear,210,2013-11-28 15:35:00
9:55 AM,37.4,19.4,48,30.41,10.0,SSW,8.1,-,N/A,,Clear,210,2013-11-28 15:55:00
10:15 AM,39.2,19.4,45,30.41,10.0,SSW,11.5,-,N/A,,Clear,210,2013-11-28 16:15:00
10:35 AM,39.2,19.4,45,30.41,10.0,SSW,9.2,-,N/A,,Clear,200,2013-11-28 16:35:00
10:55 AM,41.0,19.4,42,30.40,10.0,SSW,10.4,17.3,N/A,,Clear,200,2013-11-28 16:55:00
11:15 AM,42.8,21.2,42,30.39,10.0,SSW,10.4,-,N/A,,Clear,200,2013-11-28 17:15:00
11:35 AM,44.6,19.4,37,30.38,10.0,SSW,10.4,-,N/A,,Clear,200,2013-11-28 17:35:00
11:55 AM,46.4,21.2,37,30.37,10.0,SW,11.5,-,N/A,,Clear,230,2013-11-28 17:55:00
12:15 PM,48.2,21.2,34,30.36,10.0,SW,11.5,-,N/A,,Clear,220,2013-11-28 18:15:00
12:35 PM,50.0,21.2,32,30.36,10.0,SW,10.4,-,N/A,,Clear,220,2013-11-28 18:35:00
12:55 PM,51.8,21.2,30,30.35,10.0,SSW,11.5,-,N/A,,Clear,200,2013-11-28 18:55:00
1:15 PM,51.8,23.0,33,30.34,10.0,SSW,5.8,-,N/A,,Clear,210,2013-11-28 19:15:00
1:35 PM,51.8,23.0,33,30.34,10.0,South,10.4,-,N/A,,Clear,190,2013-11-28 19:35:00
1:55 PM,51.8,23.0,33,30.34,10.0,SSW,8.1,-,N/A,,Clear,210,2013-11-28 19:55:00
2:15 PM,51.8,24.8,35,30.34,10.0,SW,8.1,-,N/A,,Clear,230,2013-11-28 20:15:00
2:35 PM,53.6,23.0,30,30.34,10.0,WSW,11.5,-,N/A,,Clear,240,2013-11-28 20:35:00
2:55 PM,53.6,24.8,33,30.35,10.0,WSW,10.4,-,N/A,,Clear,240,2013-11-28 20:55:00
3:15 PM,51.8,24.8,35,30.35,10.0,SW,9.2,-,N/A,,Clear,230,2013-11-28 21:15:00
3:35 PM,51.8,24.8,35,30.35,10.0,SW,6.9,-,N/A,,Clear,220,2013-11-28 21:35:00
3:55 PM,50.0,24.8,37,30.35,10.0,SSW,4.6,-,N/A,,Clear,210,2013-11-28 21:55:00
4:15 PM,50.0,23.0,35,30.36,10.0,SW,6.9,-,N/A,,Clear,220,2013-11-28 22:15:00
4:35 PM,48.2,23.0,37,30.36,10.0,SSW,10.4,-,N/A,,Clear,210,2013-11-28 22:35:00
4:55 PM,46.4,21.2,37,30.36,10.0,SW,8.1,-,N/A,,Clear,220,2013-11-28 22:55:00
5:15 PM,46.4,21.2,37,30.37,10.0,SSW,5.8,-,N/A,,Clear,200,2013-11-28 23:15:00
5:35 PM,44.6,21.2,39,30.38,10.0,South,4.6,-,N/A,,Clear,190,2013-11-28 23:35:00
5:55 PM,44.6,21.2,39,30.39,10.0,South,4.6,-,N/A,,Clear,190,2013-11-28 23:55:00
6:15 PM,44.6,21.2,39,30.40,10.0,SSW,6.9,-,N/A,,Clear,200,2013-11-29 00:15:00
6:35 PM,42.8,23.0,46,30.40,10.0,SSW,6.9,-,N/A,,Clear,210,2013-11-29 00:35:00
6:55 PM,42.8,21.2,42,30.40,10.0,SSW,5.8,-,N/A,,Clear,200,2013-11-29 00:55:00
7:15 PM,42.8,21.2,42,30.41,10.0,SSW,4.6,-,N/A,,Clear,210,2013-11-29 01:15:00
7:35 PM,42.8,21.2,42,30.41,10.0,SSW,4.6,-,N/A,,Clear,200,2013-11-29 01:35:00
7:55 PM,42.8,21.2,42,30.42,10.0,SSW,4.6,-,N/A,,Clear,200,2013-11-29 01:55:00
8:15 PM,41.0,21.2,45,30.42,10.0,Calm,Calm,-,N/A,,Clear,0,2013-11-29 02:15:00
8:35 PM,41.0,21.2,45,30.42,10.0,South,3.5,-,N/A,,Clear,180,2013-11-29 02:35:00
8:55 PM,41.0,23.0,49,30.43,10.0,South,5.8,-,N/A,,Clear,190,2013-11-29 02:55:00
9:15 PM,41.0,23.0,49,30.43,10.0,SSW,5.8,-,N/A,,Clear,210,2013-11-29 03:15:00
9:35 PM,41.0,23.0,49,30.44,10.0,SSW,4.6,-,N/A,,Clear,210,2013-11-29 03:35:00
9:55 PM,39.2,23.0,52,30.44,10.0,SSW,4.6,-,N/A,,Clear,200,2013-11-29 03:55:00
10:15 PM,39.2,23.0,52,30.44,10.0,SSW,4.6,-,N/A,,Clear,210,2013-11-29 04:15:00
10:35 PM,39.2,24.8,56,30.45,10.0,SSW,3.5,-,N/A,,Clear,210,2013-11-29 04:35:00
10:55 PM,37.4,24.8,60,30.45,10.0,SSW,3.5,-,N/A,,Clear,210,2013-11-29 04:55:00
11:15 PM,35.6,24.8,65,30.45,10.0,SSW,3.5,-,N/A,,Clear,200,2013-11-29 05:15:00
11:35 PM,35.6,24.8,65,30.45,10.0,Calm,Calm,-,N/A,,Clear,0,2013-11-29 05:35:00
11:55 PM,35.6,24.8,65,30.44,10.0,Calm,Calm,-,N/A,,Clear,0,2013-11-29 05:55:00